SQ6XL-13 Weather Reports


Display with metric or nautical units.
time (UTC)temp
F
wind
direction
speed
MPH
gust
MPH
rain 1hr
in
rain 24hr
in
rain mn
in
humidity
%
barometer
mb
20260502213857 44 0.0 0.0 0.00 0.00 0.00 76 1019.3
20260502212937 44 0.0 0.0 0.00 0.00 0.00 75 1019.4
20260502212122 45 0.0 0.0 0.00 0.00 0.00 74 1019.4
20260502211207 45 0.0 0.0 0.00 0.00 0.00 74 1019.4
20260502210207 45 0.0 0.0 0.00 0.00 0.00 73 1019.5
20260502205207 46 0.0 0.0 0.00 0.00 0.00 73 1019.6
20260502204247 46 0.0 0.0 0.00 0.00 0.00 72 1019.7
20260502203317 47 0.0 0.0 0.00 0.00 0.00 72 1019.7
20260502202502 47 0.0 0.0 0.00 0.00 0.00 70 1019.9
20260502201659 47 0.0 0.0 0.00 0.00 0.00 69 1019.8
20260502200820 48 0.0 0.0 0.00 0.00 0.00 69 1019.9
20260502195942 48 0.0 0.0 0.00 0.00 0.00 68 1020.0
20260502195052 49 0.0 0.0 0.00 0.00 0.00 67 1020.0
20260502194211 49 0.0 0.0 0.00 0.00 0.00 67 1020.0
20260502193217 50 0.0 0.0 0.00 0.00 0.00 66 1020.1
20260502192227 51 0.0 0.0 0.00 0.00 0.00 64 1020.0
20260502191407 52 0.0 0.0 0.00 0.00 0.00 62 1020.0
20260502190417 53 0.0 0.0 0.00 0.00 0.00 60 1020.0
20260502185437 54 0.0 0.0 0.00 0.00 0.00 59 1020.0
20260502184447 55 0.0 0.0 0.00 0.00 0.00 56 1020.1
20260502183531 57 0.0 0.0 0.00 0.00 0.00 55 1019.9
20260502182701 58 0.0 0.0 0.00 0.00 0.00 54 1019.9
20260502181747 60 0.0 0.0 0.00 0.00 0.00 53 1019.7
20260502180947 62 0.0 0.0 0.00 0.00 0.00 50 1019.7
20260502164307 71 0.0 0.0 0.00 0.00 0.00 34 1020.2
20260502163322 71 0.0 0.0 0.00 0.00 0.00 34 1020.3
20260502162502 71 0.0 0.0 0.00 0.00 0.00 32 1020.4
20260502161519 71 0.0 0.0 0.00 0.00 0.00 31 1020.6
20260502160612 72 0.0 0.0 0.00 0.00 0.00 31 1020.8
20260502152007 72 0.0 0.0 0.00 0.00 0.00 29 1021.1
20260502151057 72 0.0 0.0 0.00 0.00 0.00 30 1021.1
20260502150117 72 0.0 0.0 0.00 0.00 0.00 31 1021.2
20260502130437 75 0.0 0.0 0.00 0.00 0.00 29 1022.6
20260502123522 72 0.0 0.0 0.00 0.00 0.00 32 1022.9
20260502122707 72 0.0 0.0 0.00 0.00 0.00 32 1022.9
20260502121817 72 0.0 0.0 0.00 0.00 0.00 36 1023.1
20260502120947 72 0.0 0.0 0.00 0.00 0.00 32 1023.3
20260502115137 72 0.0 0.0 0.00 0.00 0.00 34 1023.5
20260502114209 72 0.0 0.0 0.00 0.00 0.00 36 1023.5
20260502113237 72 0.0 0.0 0.00 0.00 0.00 34 1023.6
20260502112305 71 0.0 0.0 0.00 0.00 0.00 33 1023.8
20260502111427 72 0.0 0.0 0.00 0.00 0.00 34 1024.0
20260502110442 73 0.0 0.0 0.00 0.00 0.00 36 1023.9
20260502105510 72 0.0 0.0 0.00 0.00 0.00 36 1024.1
20260502104557 71 0.0 0.0 0.00 0.00 0.00 36 1024.3
20260502103747 71 0.0 0.0 0.00 0.00 0.00 38 1024.3
20260502102947 71 0.0 0.0 0.00 0.00 0.00 37 1024.4
20260502102147 70 0.0 0.0 0.00 0.00 0.00 37 1024.5
20260502101337 70 0.0 0.0 0.00 0.00 0.00 36 1024.6
20260502100337 71 0.0 0.0 0.00 0.00 0.00 38 1024.7
20260502091022 69 0.0 0.0 0.00 0.00 0.00 40 1025.0
20260502090222 69 0.0 0.0 0.00 0.00 0.00 40 1025.1
20260502071507 68 0.0 0.0 0.00 0.00 0.00 48 1025.3
20260502070602 67 0.0 0.0 0.00 0.00 0.00 52 1025.4
20260502065731 65 0.0 0.0 0.00 0.00 0.00 56 1025.5
20260502064807 64 0.0 0.0 0.00 0.00 0.00 59 1025.4
20260502063817 63 0.0 0.0 0.00 0.00 0.00 62 1025.3
20260502062857 61 0.0 0.0 0.00 0.00 0.00 67 1025.4
20260502062042 60 0.0 0.0 0.00 0.00 0.00 69 1025.3
20260502061151 58 0.0 0.0 0.00 0.00 0.00 73 1025.3
20260502060242 56 0.0 0.0 0.00 0.00 0.00 76 1025.4
20260502055337 54 0.0 0.0 0.00 0.00 0.00 83 1025.3
20260502054447 52 0.0 0.0 0.00 0.00 0.00 86 1025.3
20260502053527 50 0.0 0.0 0.00 0.00 0.00 88 1025.3
20260502052637 49 0.0 0.0 0.00 0.00 0.00 88 1025.4
20260502051702 47 0.0 0.0 0.00 0.00 0.00 89 1025.3
20260502050757 45 0.0 0.0 0.00 0.00 0.00 89 1025.3
20260502045857 43 0.0 0.0 0.00 0.00 0.00 89 1025.2
20260502045017 42 0.0 0.0 0.00 0.00 0.00 89 1025.2
20260502044211 41 0.0 0.0 0.00 0.00 0.00 88 1025.3
20260502043322 40 0.0 0.0 0.00 0.00 0.00 88 1025.2
20260502042427 39 0.0 0.0 0.00 0.00 0.00 88 1025.2
20260502041531 39 0.0 0.0 0.00 0.00 0.00 88 1025.1
20260502040727 38 0.0 0.0 0.00 0.00 0.00 88 1025.1
20260502035732 38 0.0 0.0 0.00 0.00 0.00 88 1025.1
20260502034857 38 0.0 0.0 0.00 0.00 0.00 88 1025.0
20260502034012 38 0.0 0.0 0.00 0.00 0.00 87 1025.2
20260502033031 38 0.0 0.0 0.00 0.00 0.00 88 1025.2
20260502032102 38 0.0 0.0 0.00 0.00 0.00 87 1025.1
20260502031157 39 0.0 0.0 0.00 0.00 0.00 87 1025.2
20260502030351 39 0.0 0.0 0.00 0.00 0.00 86 1025.2
20260502025357 39 0.0 0.0 0.00 0.00 0.00 86 1025.3
20260502024555 39 0.0 0.0 0.00 0.00 0.00 87 1025.3
20260502023751 39 0.0 0.0 0.00 0.00 0.00 86 1025.4
20260502022851 39 0.0 0.0 0.00 0.00 0.00 86 1025.2
20260502022007 39 0.0 0.0 0.00 0.00 0.00 87 1025.3
20260502021207 39 0.0 0.0 0.00 0.00 0.00 86 1025.1
20260502020322 40 0.0 0.0 0.00 0.00 0.00 87 1025.3
20260502015331 40 0.0 0.0 0.00 0.00 0.00 86 1025.3
20260502014357 40 0.0 0.0 0.00 0.00 0.00 87 1025.4
20260502013557 40 0.0 0.0 0.00 0.00 0.00 86 1025.3
20260502012647 40 0.0 0.0 0.00 0.00 0.00 84 1025.3
20260502011827 41 0.0 0.0 0.00 0.00 0.00 84 1025.4
20260502010912 42 0.0 0.0 0.00 0.00 0.00 83 1025.5
20260502010047 42 0.0 0.0 0.00 0.00 0.00 84 1025.5
20260502005207 43 0.0 0.0 0.00 0.00 0.00 84 1025.5
20260502004317 43 0.0 0.0 0.00 0.00 0.00 84 1025.7
20260502003447 44 0.0 0.0 0.00 0.00 0.00 84 1025.5
20260502002617 44 0.0 0.0 0.00 0.00 0.00 84 1025.6
20260502001751 43 0.0 0.0 0.00 0.00 0.00 84 1025.6
20260502000817 43 0.0 0.0 0.00 0.00 0.00 85 1025.7
20260501235951 43 0.0 0.0 0.00 0.00 0.00 84 1025.7
20260501235052 43 0.0 0.0 0.00 0.00 0.00 84 1025.9
20260501234207 43 0.0 0.0 0.00 0.00 0.00 83 1025.7
20260501233217 44 0.0 0.0 0.00 0.00 0.00 83 1025.7
20260501232237 43 0.0 0.0 0.00 0.00 0.00 83 1025.8
20260501231252 43 0.0 0.0 0.00 0.00 0.00 82 1025.8
20260501230312 43 0.0 0.0 0.00 0.00 0.00 82 1025.8
20260501225401 43 0.0 0.0 0.00 0.00 0.00 81 1025.9
20260501224431 43 0.0 0.0 0.00 0.00 0.00 81 1025.9
20260501223539 43 0.0 0.0 0.00 0.00 0.00 80 1026.0
20260501222707 44 0.0 0.0 0.00 0.00 0.00 79 1025.9
20260501221711 44 0.0 0.0 0.00 0.00 0.00 78 1026.0
20260501220858 44 0.0 0.0 0.00 0.00 0.00 78 1026.0
20260501215947 45 0.0 0.0 0.00 0.00 0.00 78 1026.1
20260501215122 45 0.0 0.0 0.00 0.00 0.00 78 1026.1